User: anonymous   Login
Location: Pine Mountain Observatory
(43.7910°N, 120.9377°W)
Time: 20:16:33
(UTC-07:00)
Language:

Transit 4A - Orbit

View from above orbital plane
View from above orbital plane
View from above satellite
View from above satellite

Ground track
Ground track

The orbit data is extracted from the following two-line orbital elements,

1   116U 61015A   19142.39692691 -.00000031  00000-0  34881-4 0  9996
2   116  66.8101  86.6258 0082720 282.6718  76.5123 13.91752785937742
Epoch (UTC): 22 May 2019 09:31:34
Eccentricity: 0.0082720
inclination: 66.8101°
perigee height: 862 km
apogee height: 983 km
right ascension of ascending node: 86.6258°
argument of perigee: 282.6718°
revolutions per day: 13.91752785
mean anomaly at epoch: 76.5123°
orbit number at epoch: 93774

The dashed part of the orbit path shows where the satellite is in the earth's shadow,  

DLR